Flag for Kazakhstan Weather past 2 weeks in Qyzylorda, Kazakhstan

Now
1 °F

Clear.


Feels Like: -13 °F
Forecast: 15 / 24 °F
Wind: 8 mph from Northeast

Location: Kzyl-Orda

Current Time: Jan 30, 2015 at 9:24:09 AM

Latest Report: Jan 30, 2015 at 8:30 AM


Visibility: 10 mi

Pressure: 30.18 "Hg

Humidity: 78%

Dew point: -4 °F

Location of QyzylordaLocation

Historic Weather in Qyzylorda — Graph

°F

Qyzylorda temperature yesterday

Maximum temperature yesterday: 12 °F (at 3:30 PM)
Minimum temperature yesterday: -2 °F (at 9:30 AM)
Average temperature yesterday: 5 °F

Past Weeks' High & Low Weather Summary

 TemperatureHumidityPressure
High48 °F (Jan 17, 3:00 PM)100% (Jan 16, 1:00 AM)30.80 "Hg (Jan 16, 1:00 AM)
Low-17 °F (Jan 26, 8:30 AM)46% (Jan 17, 3:00 PM)29.95 "Hg (Jan 17, 1:30 PM)
Average17 °F83%30.41 "Hg
* Reported Jan 15 8:00 AM — Jan 30 8:00 AM, Qyzylorda, Weather by CustomWeather, © 2014

Note: Actual official high and low records may vary slightly from our data, if they occured in-between our weather recording intervals... More about our weather records

Advertising

Qyzylorda weather history for previous 24 hours

 ConditionsComfort  
Time TempWeatherWind HumidityBarometerVisibility
8:00 AM
Jan 30
1 °FClear.8 mph78%30.18 "Hg10 mi
7:30 AM1 °FClear.8 mph78%30.18 "Hg10 mi
7:00 AM1 °FClear.8 mph85%30.18 "Hg10 mi
6:00 AM1 °FClear.8 mph85%30.18 "Hg10 mi
5:00 AM0 °FClear.6 mph84%30.18 "Hg10 mi
4:00 AM0 °FClear.6 mph92%30.18 "Hg10 mi
3:00 AM1 °FClear.8 mph85%30.21 "Hg10 mi
2:00 AM1 °FClear.8 mph85%30.21 "Hg10 mi
1:00 AM1 °FClear.6 mph85%30.24 "Hg10 mi
12:00 AM1 °FClear.3 mph85%30.24 "Hg10 mi
11:00 PM
Jan 29
3 °FClear.6 mph78%30.24 "Hg10 mi
10:00 PM3 °FClear.8 mph85%30.27 "Hg10 mi
9:00 PM5 °FClear.6 mph85%30.30 "Hg10 mi
8:00 PM5 °FClear.6 mph85%30.30 "Hg10 mi
7:30 PM5 °FPassing clouds.3 mph85%30.30 "HgN/A
7:00 PM9 °FSunny.6 mph78%30.27 "Hg10 mi
6:30 PM9 °FSunny.6 mph78%30.27 "Hg10 mi
6:00 PM12 °FSunny.8 mph67%30.27 "Hg10 mi
5:30 PM12 °FSunny.8 mph67%30.27 "Hg10 mi
5:00 PM12 °FSunny.8 mph67%30.27 "Hg10 mi
4:30 PM12 °FSunny.8 mph67%30.27 "Hg10 mi
4:00 PM12 °FSunny.8 mph67%30.27 "Hg10 mi
3:30 PM12 °FSunny.8 mph67%30.30 "Hg10 mi
3:00 PM10 °FSunny.8 mph67%30.30 "Hg10 mi
2:30 PM10 °FSunny.8 mph67%30.30 "Hg10 mi
2:00 PM9 °FSunny.8 mph66%30.33 "Hg10 mi
1:30 PM9 °FSunny.8 mph66%30.33 "Hg10 mi
1:00 PM7 °FPassing clouds.8 mph66%30.33 "HgN/A
12:30 PM7 °FSunny.8 mph66%30.33 "Hg10 mi
12:00 PM3 °FSunny.10 mph72%30.33 "Hg10 mi
11:30 AM3 °FSunny.8 mph72%30.36 "Hg10 mi
11:00 AM1 °FSunny.10 mph78%30.36 "Hg10 mi
10:30 AM0 °FSunny.10 mph78%30.36 "Hg10 mi
10:00 AM-2 °FClear.10 mph84%30.36 "Hg10 mi
9:30 AM-2 °FClear.10 mph84%30.36 "Hg10 mi
9:00 AM0 °FClear.10 mph78%30.33 "Hg10 mi
Weather by CustomWeather, © 2014

See weather overviewHow to use our weather pages